Location: Mohawk View
(42.7837°N, 73.7885°W)
Time: 12:12:13
(UTC+00:00)

OE (NEXTSAT) - Pass Details

Date: 17 June 2021
Orbit: 425 x 430 km, 46.0° (Epoch: 30 July)

Event Time Altitude Azimuth Distance (km) Brightness Sun altitude
Exits shadow 06:38:00 81° 152° (SSE) 436 4.1 -19.8°
Drops below altitude 10° 06:41:24 10° 71° (ENE) 1,519 7.7 -19.5°
Sets 06:43:31 0° 71° (ENE) 2,385 8.8 -19.4°
